Location: Siloam Springs
(36.1881°N, 94.5403°W)
Time: 04:53:09
(UTC-05:00)

CUBESAT XI-V - Pass Details

Date: 28 May 2024
Orbit: 657 x 679 km, 98.2° (Epoch: 16 June)

Event Time Altitude Azimuth Distance (km) Brightness Sun altitude
Exits shadow 04:48:08 12° 273° (W) 1,966 ? -13.5°
Drops below altitude 10° 04:49:23 10° 289° (WNW) 2,073 ? -13.3°
Sets 04:53:11 0° 322° (NW) 2,989 ? -12.7°
